CAPE
0 0 0 0 0 0 0 0 0 0 0 0 0 0 0 0 0 0 0 0 0 0 0 0 0 0 0 0 1 2 0 0 0 0 2 0 0 0 0 0 0 0 0 0
0 0 0 0 0 0 0 0 0 0 0 0 0 0 0 0 0 0 0 0 0 0 0 0 0 0 0 0 1 2 1 0 1 1 0 1 0 0 0 0 0 0 1 0
0 0 0 0 0 0 0 0 0 0 0 0 0 0 0 0 0 0 0 0 0 0 0 0 0 1 1 1 1 1 1 0 1 2 1 0 1 0 0 0 0 0 0 1
0 0 0 0 0 0 0 0 0 0 0 0 0 0 0 0 0 0 0 0 0 0 0 0 0 1 1 1 1 1 1 1 2 2 2 2 1 0 0 0 2 3 0 0
0 0 0 0 0 0 0 0 0 0 0 0 0 0 0 0 0 0 0 0 0 0 0 0 1 1 1 1 2 0 1 1 1 1 2 3 1 2 4 0 0 1 0 2
0 0 0 0 0 0 0 0 0 0 0 0 0 0 0 0 0 0 0 0 0 0 0 0 0 1 1 0 0 0 0 1 1 1 3 5 4 3 0 0 4 3 1 5
0 0 0 0 0 0 0 0 0 0 0 0 0 0 0 0 0 0 0 0 0 0 0 0 0 0 0 0 0 0 1 2 2 3 4 6 7 7 5 5 7 0 2 9
0 0 0 0 0 0 0 0 0 0 0 0 0 0 0 0 0 0 0 0 0 0 0 0 0 0 0 0 0 1 1 2 2 2 5 4 5 8 8 8 9 9 8 8
0 0 0 0 0 0 0 0 0 0 0 0 0 0 0 0 0 0 0 0 0 0 0 0 0 0 1 1 0 1 1 2 2 3 2 3 4 6 9 6 7 7 6 5
0 0 0 0 0 0 0 0 0 0 0 0 0 0 0 0 0 0 0 0 0 0 0 0 0 1 1 1 1 0 1 0 1 1 1 3 4 3 4 3 6 5 4 3
0 0 0 0 0 0 0 0 0 0 0 0 0 0 0 0 0 0 0 0 0 0 0 0 0 0 1 1 1 1 1 0 1 1 1 1 2 2 2 3 2 2 2 3
0 0 0 0 0 0 0 0 0 0 0 1 0 0 0 0 0 0 0 0 0 0 0 0 1 1 0 1 1 0 0 0 0 0 0 1 0 0 1 1 2 2 2 2
0 0 0 0 0 0 0 0 0 0 0 0 0 0 0 0 0 0 0 1 0 0 0 0 0 0 0 0 1 0 0 0 0 0 0 0 0 0 0 0 1 1 1 2
0 0 0 0 0 0 0 0 0 0 0 0 0 0 0 0 0 0 0 0 0 0 0 0 0 0 0 1 0 0 0 0 0 0 0 0 0 0 0 1 1 1 1 2
0 0 0 0 0 0 0 0 0 0 0 0 0 0 0 0 0 0 0 0 0 0 0 0 0 0 1 0 0 0 0 0 0 0 0 0 0 0 0 0 0 0 0 0
0 0 0 0 0 0 0 0 0 0 0 0 0 0 0 0 0 0 0 0 0 0 0 0 0 0 0 0 0 0 0 0 0 0 0 0 0 0 0 0 0 0 0 0
0 0 0 0 0 0 0 0 0 0 0 0 0 0 0 0 0 0 0 0 0 0 0 0 0 0 0 0 1 0 0 0 0 0 0 0 0 0 0 0 0 0 0 0
0 0 0 0 0 0 0 0 0 0 0 0 0 0 0 0 0 0 0 0 0 0 0 0 0 0 2 2 1 0 0 0 0 0 0 0 0 0 0 0 0 0 0 0
0 0 0 0 0 0 0 0 0 0 0 0 0 0 0 0 0 0 0 0 0 0 0 0 0 0 0 0 0 0 0 0 0 0 0 0 0 0 0 0 0 0 0 0
0 0 0 0 0 0 0 0 0 0 0 0 0 0 0 0 0 0 0 0 0 0 0 0 0 0 0 0 0 0 0 0 0 0 0 0 0 0 0 0 0 0 0 0
0 1 0 0 0 0 0 0 0 0 0 0 0 0 0 0 0 0 0 0 0 0 0 0 0 0 0 0 0 0 0 0 0 0 0 0 0 0 0 0 0 0 0 0
0 0 0 0 0 0 0 0 0 0 0 0 0 0 0 0 0 0 0 0 0 0 0 0 0 0 0 0 0 0 0 0 0 0 0 0 0 0 0 0 0 0 0 0
0 0 0 0 0 0 0 0 0 0 0 0 0 0 0 0 0 0 0 0 0 0 0 0 0 0 0 0 0 0 0 0 0 0 0 0 0 0 0 0 0 0 0 0
0 0 0 0 0 0 0 0 0 0 0 0 0 0 0 0 0 0 0 0 0 0 0 0 0 0 0 0 0 0 0 0 0 0 0 0 0 0 0 0 0 0 0 0
0 0 0 0 0 0 0 0 0 0 0 0 0 0 0 0 0 0 0 0 0 0 0 0 0 0 0 0 0 0 0 0 0 0 0 0 0 0 0 0 0 0 0 0
0 0 0 0 0 0 0 0 0 0 0 0 0 0 0 0 0 0 0 0 0 0 0 0 0 0 0 0 0 0 0 0 0 0 0 0 0 0 0 0 0 0 0 0
CIN
-0 -0 -0 -0 -0 -0 -0 -0 -0 -0 -0 -0 -0 -0 -0 -0 -0 -0 -0 -0 -0 -0 -0 -0 -0 -0 -0 -0 -0 -1 -0 -0 -0 -0 -0 -0 -0 -0 -0 -0 -0 -0 -0 -0
-0 -0 -0 -0 -0 -0 -0 -0 -0 -0 -0 -0 -0 -0 -0 -0 -0 -0 -0 -0 -0 -0 -0 -0 -0 -0 -0 -0 -0 -0 -0 -0 -0 -0 -0 -0 -0 -0 -0 -0 -0 -0 -0 -0
-0 -0 -0 -0 -0 -0 -0 -0 -0 -0 -0 -0 -0 -0 -0 -0 -0 -0 -0 -0 -0 -0 -0 -0 -0 -0 -0 -0 -0 -0 -0 -0 -0 -0 -0 -0 -0 -0 -0 -0 -0 -0 -0 -0
-0 -0 -0 -0 -0 -0 -0 -0 -0 -0 -0 -0 -0 -0 -0 -0 -0 -0 -0 -0 -0 -0 -0 -0 -0 -0 -0 -0 -0 -0 -0 -0 -0 -0 -0 -0 -0 -0 -0 -0 -0 -0 -0 -0
-0 -0 -0 -0 -0 -0 -0 -0 -0 -0 -0 -0 -0 -0 -0 -0 -0 -0 -0 -0 -0 -0 -0 -0 -0 -0 -0 -0 -0 -0 -0 -0 -0 -0 -0 -0 -0 -0 -0 -0 -0 -0 -0 -0
-0 -0 -0 -0 -0 -0 -0 -0 -0 -0 -0 -0 -0 -0 -0 -0 -0 -0 -0 -0 -0 -0 -0 -0 -0 -0 -0 -0 -0 -1 -0 -0 -0 -0 -0 -0 -0 -0 -0 -0 -0 -0 -0 -0
-0 -0 -0 -0 -0 -0 -0 -0 -0 -0 -0 -0 -0 -0 -0 -0 -0 -0 -0 -0 -0 -0 -0 -0 -0 -0 -0 -0 -0 -0 -0 -0 -0 -0 -0 -0 -0 -0 -0 -0 -0 -0 -0 -0
-0 -0 -0 -0 -0 -0 -0 -0 -0 -0 -0 -0 -0 -0 -0 -0 -0 -0 -0 -0 -0 -0 -0 -0 -0 -0 -0 -0 -0 -0 -0 -0 -0 -0 -0 -0 -0 -0 -0 -0 -0 -0 -0 -0
-0 -0 -0 -0 -0 -0 -0 -0 -0 -0 -0 -0 -0 -0 -0 -0 -0 -0 -0 -0 -0 -0 -0 -0 -0 -0 -0 -0 -0 -0 -0 -0 -0 -0 -0 -0 -0 -0 -0 -0 -0 -0 -0 -0
-0 -0 -0 -0 -0 -0 -0 -0 -0 -0 -0 -0 -0 -0 -0 -0 -0 -0 -0 -0 -0 -0 -0 -0 -0 -0 -0 -0 -0 -0 -0 -0 -0 -0 -0 -0 -0 -0 -0 -0 -0 -0 -0 -0
-0 -0 -0 -0 -0 -0 -0 -0 -0 -0 -0 -0 -0 -0 -0 -0 -0 -0 -0 -0 -0 -0 -0 -0 -0 -0 -0 -0 -0 -0 -0 -0 -0 -0 -0 -0 -0 -0 -0 -0 -0 -0 -0 -0
-0 -0 -0 -0 -0 -0 -0 -0 -0 -0 -0 -0 -0 -0 -0 -0 -0 -0 -0 -0 -0 -0 -0 -0 -0 -0 -0 -0 -0 -0 -0 -0 -0 -0 -0 -0 -0 -0 -0 -0 -0 -0 -0 -0
-0 -0 -0 -0 -0 -0 -0 -0 -0 -0 -0 -0 -0 -0 -0 -0 -0 -0 -0 -0 -0 -0 -0 -0 -0 -0 -0 -0 -0 -0 -0 -0 -0 -0 -0 -0 -0 -0 -0 -0 -0 -0 -0 -0
-0 -0 -0 -0 -0 -0 -0 -0 -0 -0 -0 -0 -0 -0 -0 -0 -0 -0 -0 -0 -0 -0 -0 -0 -0 -0 -0 -0 -0 -0 -0 -0 -0 -0 -0 -0 -0 -0 -0 -0 -0 -0 -0 -0
-0 -0 -0 -0 -0 -0 -0 -0 -0 -0 -0 -0 -0 -0 -0 -0 -0 -0 -0 -0 -0 -0 -0 -0 -0 -0 -0 -0 -0 -0 -0 -0 -0 -0 -0 -0 -0 -0 -0 -0 -0 -0 -0 -0
-0 -0 -0 -0 -0 -0 -0 -0 -0 -0 -0 -0 -0 -0 -0 -0 -0 -0 -0 -0 -0 -0 -0 -0 -0 -0 -0 -0 -0 -0 -0 -0 -0 -0 -0 -0 -0 -0 -0 -0 -0 -0 -0 -0
-0 -0 -0 -0 -0 -0 -0 -0 -0 -0 -0 -0 -0 -0 -0 -0 -0 -0 -0 -0 -0 -0 -0 -0 -0 -0 -0 -0 -0 -0 -0 -0 -0 -0 -0 -0 -0 -0 -0 -0 -0 -0 -0 -0
-0 -0 -0 -0 -0 -0 -0 -0 -0 -0 -0 -0 -0 -0 -0 -0 -0 -0 -0 -0 -0 -0 -0 -0 -0 -0 -0 -0 -0 -0 -0 -0 -0 -0 -0 -0 -0 -0 -0 -0 -0 -0 -0 -0
-0 -0 -0 -0 -0 -0 -0 -0 -0 -0 -0 -0 -0 -0 -0 -0 -0 -0 -0 -0 -0 -0 -0 -0 -0 -0 -0 -0 -0 -0 -0 -0 -0 -0 -0 -0 -0 -0 -0 -0 -0 -0 -0 -0
-0 -0 -0 -0 -0 -0 -0 -0 -0 -0 -0 -0 -0 -0 -0 -0 -0 -0 -0 -0 -0 -0 -0 -0 -0 -0 -0 -0 -0 -0 -0 -0 -0 -0 -0 -0 -0 -0 -0 -0 -0 -0 -0 -0
-0 -0 -0 -0 -0 -0 -0 -0 -0 -0 -0 -0 -0 -0 -0 -0 -0 -0 -0 -0 -0 -0 -0 -0 -0 -0 -0 -0 -0 -0 -0 -0 -0 -0 -0 -0 -0 -0 -0 -0 -0 -0 -0 -0
-0 -0 -0 -0 -0 -0 -0 -0 -0 -0 -0 -0 -0 -0 -0 -0 -0 -0 -0 -0 -0 -0 -0 -0 -0 -0 -0 -0 -0 -0 -0 -0 -0 -0 -0 -0 -0 -0 -0 -0 -0 -0 -0 -0
-0 -0 -0 -0 -0 -0 -0 -0 -0 -0 -0 -0 -0 -0 -0 -0 -0 -0 -0 -0 -0 -0 -0 -0 -0 -0 -0 -0 -0 -0 -0 -0 -0 -0 -0 -0 -0 -0 -0 -0 -0 -0 -0 -0
-0 -0 -0 -0 -0 -0 -0 -0 -0 -0 -0 -0 -0 -0 -0 -0 -0 -0 -0 -0 -0 -0 -0 -0 -0 -0 -0 -0 -0 -0 -0 -0 -0 -0 -0 -0 -0 -0 -0 -0 -0 -0 -0 -0
-0 -0 -0 -0 -0 -0 -0 -0 -0 -0 -0 -0 -0 -0 -0 -0 -0 -0 -0 -0 -0 -0 -0 -0 -0 -0 -0 -0 -0 -0 -0 -0 -0 -0 -0 -0 -0 -0 -0 -0 -0 -0 -0 -0
-0 -0 -0 -0 -0 -0 -0 -0 -0 -0 -0 -0 -0 -0 -0 -0 -0 -0 -0 -0 -0 -0 -0 -0 -0 -0 -0 -0 -0 -0 -0 -0 -0 -0 -0 -0 -0 -0 -0 -0 -0 -0 -0 -0
Wind_Speed
19 20 22 25 25 26 28 28 31 31 31 29 27 27 28 20 17 16 22 27 32 32 34 34 34 34 33 32 33 33 33 32 32 33 33 33 35 33 32 33 34 32 34 35
19 19 20 21 23 25 27 30 32 31 26 26 27 28 25 17 14 14 21 27 29 31 33 35 33 32 31 31 30 31 31 31 31 32 33 33 33 33 33 32 34 35 33 34
18 21 19 22 25 28 26 26 31 31 34 25 29 31 27 20 14 12 21 26 26 30 33 35 33 31 29 28 28 29 28 29 30 31 32 32 32 32 33 31 28 29 31 33
17 19 20 23 26 26 31 24 31 33 32 35 31 37 27 22 18 14 24 27 26 27 28 31 32 29 27 26 26 27 27 26 28 29 30 30 32 32 28 28 28 28 27 30
20 19 21 24 24 23 26 27 28 24 26 30 31 33 28 22 22 18 24 26 22 22 19 32 24 24 25 25 24 25 24 23 25 26 26 27 28 29 27 26 26 25 25 25
18 18 18 20 19 21 25 27 24 22 25 31 32 33 32 27 23 20 22 24 18 17 11 15 19 20 22 23 23 22 21 21 22 23 24 25 26 26 26 26 27 26 25 25
18 19 17 19 23 22 31 33 28 26 28 31 29 31 28 25 20 20 21 18 14 10 3 14 17 17 19 20 19 19 19 19 20 21 21 22 23 23 23 23 24 24 24 24
19 23 20 20 23 25 27 27 28 27 25 29 27 32 32 26 20 17 16 13 12 8 1 11 14 17 17 17 17 16 16 17 17 18 19 19 19 19 19 19 20 20 20 20
19 21 18 19 20 21 22 27 22 22 22 25 27 28 28 26 26 25 18 11 9 3 5 9 11 12 12 13 14 13 12 14 15 15 16 15 16 16 16 15 15 15 15 15
16 22 18 17 19 21 21 20 24 24 29 26 30 30 34 33 33 27 20 6 5 5 6 7 9 10 10 10 11 11 10 11 12 12 13 12 12 12 12 11 10 10 10 10
16 17 20 19 19 20 20 22 23 22 22 25 27 30 29 33 33 28 20 6 7 8 7 6 6 6 7 8 8 9 8 8 9 10 9 9 8 8 8 7 6 6 6 7
13 17 20 21 17 17 18 19 20 23 25 21 23 25 25 30 30 25 17 8 9 9 8 7 6 5 5 6 6 6 6 6 6 7 5 5 4 4 4 3 3 4 4 4
13 16 23 22 18 17 17 17 17 19 21 20 25 27 22 25 27 23 10 9 10 11 9 7 6 5 5 5 5 5 5 5 5 5 3 1 2 1 1 2 4 1 0 0
13 14 15 21 20 19 17 16 13 15 18 21 16 20 22 22 25 22 12 12 14 14 11 9 7 6 6 6 6 7 6 5 3 1 4 5 4 3 4 5 6 6 6 7
12 14 13 10 11 13 12 12 11 9 12 15 20 15 10 15 20 20 14 15 16 17 16 13 11 9 10 10 10 10 6 2 1 5 8 8 6 7 8 8 7 8 9 9
11 14 14 16 14 14 14 10 9 7 8 4 4 9 16 16 19 19 20 20 20 20 19 18 17 16 16 17 15 13 19 10 8 12 12 8 7 8 7 8 7 11 12 11
10 11 16 18 15 14 16 15 12 14 13 14 18 20 19 19 22 21 23 22 22 22 23 22 22 25 27 29 30 27 29 25 8 9 7 11 13 9 7 9 9 9 10 10
9 10 11 14 17 22 17 16 14 11 12 13 15 17 20 22 23 21 23 26 27 27 28 28 29 29 27 28 30 32 32 34 34 32 26 18 9 6 7 7 10 8 12 12
10 8 10 15 17 10 16 15 16 16 15 17 19 21 22 24 25 26 26 28 30 32 32 32 30 31 31 33 31 32 32 33 33 33 34 28 25 21 12 5 10 20 20 19
11 11 10 13 16 19 16 16 17 17 18 20 24 25 26 27 29 29 31 31 32 32 31 31 30 30 30 29 29 30 31 31 30 29 28 26 21 13 7 15 25 22 19 16
10 8 10 9 11 9 12 17 19 20 18 23 26 27 29 27 23 29 32 30 30 30 30 29 28 28 28 28 28 29 29 29 28 27 27 27 27 28 27 27 25 22 20 19
7 8 10 11 12 14 17 19 18 16 17 23 26 28 29 26 28 30 30 30 29 29 28 28 27 27 26 25 26 26 26 25 25 25 25 25 24 24 23 20 18 17 17 18
19 6 8 13 12 12 16 14 16 16 18 22 25 27 29 27 28 29 28 28 27 26 26 25 25 24 23 23 23 23 22 22 23 22 22 22 21 20 19 19 17 16 16 16
24 23 26 22 18 17 15 17 15 17 18 21 24 25 27 26 27 27 26 25 24 24 23 22 21 21 20 20 20 20 20 21 21 20 20 20 19 18 17 16 15 14 13 14
23 17 26 28 27 24 21 19 19 20 18 19 22 24 25 24 24 24 23 23 21 20 20 19 19 18 18 18 18 18 18 18 18 18 17 16 15 14 13 12 12 11 11 12
24 27 33 30 29 26 25 20 13 20 23 19 18 20 22 22 20 20 20 20 19 18 17 17 16 15 15 15 15 15 15 15 15 15 14 13 11 10 9 9 9 9 9 10
Wind_Direction
0 358 355 356 5 1 358 355 350 353 358 355 350 345 346 349 353 356 353 351 346 341 338 330 321 316 306 296 283 277 272 274 270 262 256 253 254 258 260 261 262 262 264 268
360 356 360 4 5 0 359 352 354 359 1 352 353 347 351 1 2 7 358 354 350 345 341 327 327 321 314 298 285 279 273 271 269 263 258 255 255 258 261 264 263 260 264 267
356 359 4 2 359 357 357 353 354 351 355 3 2 4 11 19 23 22 6 359 358 350 342 326 323 317 304 293 276 276 275 270 268 265 259 256 256 257 260 263 268 270 268 269
360 3 1 358 359 3 354 3 353 353 1 4 13 6 12 21 21 25 9 5 4 1 355 337 324 306 298 291 276 275 275 273 266 265 259 255 252 254 261 266 270 271 273 271
0 359 359 359 5 7 356 354 353 2 7 7 14 11 16 22 18 21 12 10 13 14 18 326 288 284 292 292 282 278 276 270 265 263 260 255 255 258 264 268 270 271 271 275
356 4 8 9 11 9 2 359 6 13 13 11 13 14 13 16 18 15 14 15 22 25 36 283 277 279 288 290 284 277 272 270 267 263 260 257 258 261 264 266 265 265 268 269
3 4 15 17 7 14 6 4 6 11 14 11 17 14 12 16 20 18 12 17 32 42 263 275 280 278 284 288 285 276 267 263 265 260 260 260 263 266 266 265 263 264 264 266
2 358 10 19 15 9 14 15 13 6 11 8 17 15 16 21 23 18 16 30 47 62 198 269 274 283 281 285 288 276 262 255 260 259 260 265 271 270 270 268 266 266 265 268
4 2 19 23 25 22 19 12 19 10 12 13 16 17 22 24 18 13 23 51 68 134 240 262 270 272 270 274 279 274 258 260 264 265 269 272 274 272 271 272 271 269 270 274
9 359 17 26 29 27 23 24 12 17 8 11 12 15 14 16 12 14 27 74 193 208 230 245 260 274 271 268 266 270 259 260 268 268 266 268 271 274 276 280 280 278 277 279
10 10 12 21 23 20 21 16 14 14 14 14 11 17 22 18 15 18 33 211 203 208 223 221 235 243 256 258 267 263 258 255 253 254 257 262 269 276 283 289 293 294 291 294
16 11 8 11 27 30 25 17 16 12 10 14 14 15 27 23 23 29 50 204 180 186 200 201 201 197 222 236 248 254 252 254 252 252 268 295 298 314 327 330 333 327 325 292
21 14 2 12 28 29 21 24 22 19 15 16 17 17 30 28 32 43 97 137 151 175 187 188 180 181 191 197 215 224 222 225 229 228 249 327 355 2 33 45 31 24 16 120
18 14 12 7 10 20 16 20 27 29 23 23 24 17 27 34 41 60 119 125 128 144 166 171 177 186 187 181 174 175 182 193 206 312 27 40 48 66 76 73 67 69 71 63
13 8 17 15 17 18 14 18 34 46 38 38 32 33 27 52 60 81 117 119 127 126 133 142 150 158 153 154 156 155 167 167 115 44 53 59 71 71 73 71 72 86 68 72
16 12 21 17 36 34 20 34 58 71 66 78 57 56 77 81 86 97 107 117 122 126 126 127 132 134 134 133 141 145 135 143 138 51 54 68 95 85 102 93 91 77 76 72
15 29 24 22 42 32 44 57 78 74 80 71 60 66 85 94 92 105 112 120 123 124 123 123 125 122 117 114 116 127 123 134 108 89 98 145 149 135 111 72 88 93 74 65
18 35 45 31 38 39 57 66 75 92 97 120 100 106 110 105 105 118 124 121 118 119 120 122 121 121 123 122 119 119 121 112 113 122 136 147 141 111 114 103 72 68 54 49
347 48 56 42 42 58 68 83 84 88 95 131 131 130 125 117 113 113 129 127 122 121 121 123 125 124 121 117 122 122 123 120 119 119 118 135 143 149 154 118 55 62 59 54
340 5 93 62 49 55 80 93 103 104 98 129 135 136 130 127 114 118 129 129 127 127 127 126 125 125 124 125 126 125 124 123 125 128 132 139 150 164 46 53 79 66 55 42
347 64 130 102 76 103 106 97 106 93 107 131 139 139 134 137 141 133 132 134 132 129 128 129 128 126 124 125 124 121 122 122 125 125 126 125 122 114 109 100 83 68 56 50
346 57 85 87 83 76 107 94 103 120 128 136 139 147 146 148 140 135 135 134 133 131 129 129 127 127 127 126 122 119 119 121 121 119 119 120 122 118 93 69 55 45 44 44
289 262 25 139 137 134 137 125 141 137 137 145 148 150 151 145 144 141 140 139 137 135 132 130 128 127 128 127 126 122 122 120 119 116 113 111 105 100 91 87 73 57 54 50
269 271 245 254 222 188 181 180 161 156 157 160 158 152 151 152 149 148 145 143 142 140 138 133 131 131 132 133 132 131 125 128 123 122 122 118 112 106 99 93 83 71 59 46
276 283 258 234 238 232 218 196 183 178 163 161 159 159 162 156 156 155 153 152 148 146 144 141 142 141 141 138 140 136 131 125 127 128 123 120 113 105 90 78 61 47 38 31
271 270 242 231 259 264 261 294 153 180 181 164 156 161 166 165 162 159 161 158 156 156 151 152 152 150 149 146 144 140 135 131 130 130 128 120 105 89 72 54 36 32 23 17